[Iaude] MPEC T127: 2016 TF55 [a=2.27,e=0.50,i=22.3,H=22.1]

mpec at si.edu mpec at si.edu
Wed Oct 12 10:19:51 EDT 2016


M.P.E.C. 2016-T127                               Issued 2016 Oct. 12, 14:15 UT
 
     The Minor Planet Electronic Circulars contain information on unusual
         minor planets and routine data on comets.  They are published
    on behalf of Division F of the International Astronomical Union by the
          Minor Planet Center, Smithsonian Astrophysical Observatory,
                          Cambridge, MA 02138, U.S.A.

             Prepared using the Tamkin Foundation Computer Network

                              MPC at CFA.HARVARD.EDU
            URL http://www.minorplanetcenter.net/    ISSN 1523-6714


                                   2016 TF55
 
Observations:
     K16T55F* C2016 10 09.35085 00 58 18.38 -10 50 51.6          21.2 VqET127G96
     K16T55F  C2016 10 09.35693 00 58 17.28 -10 50 35.6          21.0 VqET127G96
     K16T55F  C2016 10 09.36124 00 58 16.53 -10 50 25.0          20.8 VqET127G96
     K16T55F  C2016 10 09.36717 00 58 15.54 -10 50 09.6          20.5 VqET127G96
     K16T55F  C2016 10 09.41665 00 58 07.12 -10 48 04.7                qET127G96
     K16T55F  C2016 10 09.41903 00 58 06.79 -10 47 56.9          20.5 VqET127G96
     K16T55F  C2016 10 09.42234 00 58 06.16 -10 47 47.9          21.3 VqET127G96
     K16T55F KC2016 10 09.47514 00 57 59.03 -10 45 02.9          21.1 RtET127474
     K16T55F KC2016 10 09.47865 00 57 58.44 -10 44 53.8          21.3 RtET127474
     K16T55F KC2016 10 09.48217 00 57 57.84 -10 44 44.8          20.8 RtET127474
     K16T55F KC2016 10 09.48569 00 57 57.20 -10 44 35.8          20.7 RtET127474
     K16T55F  C2016 10 10.27611 00 55 47.18 -10 10 46.6          20.4 RoET127926
     K16T55F  C2016 10 10.28376 00 55 45.86 -10 10 26.8          19.9 RoET127926
     K16T55F  C2016 10 10.29211 00 55 44.36 -10 10 04.4          20.1 RoET127926
     K16T55F  C2016 10 11.22684 00 53 07.56 -09 27 43.5          20.9 VqET127G96
     K16T55F  C2016 10 11.22869 00 53 07.20 -09 27 38.9          21.2 VqET127G96
     K16T55F  C2016 10 11.23060 00 53 06.87 -09 27 33.3          21.0 VqET127G96
     K16T55F  C2016 10 11.23240 00 53 06.53 -09 27 29.1          20.6 VqET127G96
     K16T55F  C2016 10 11.32610 00 52 49.65 -09 23 07.8          20.8 RoET127926
     K16T55F  C2016 10 11.33279 00 52 48.42 -09 22 49.0          20.4 RoET127926
     K16T55F  C2016 10 11.33984 00 52 47.13 -09 22 29.3          20.4 RoET127926
     K16T55F  C2016 10 12.26709 00 50 07.49 -08 38 27.6          20.8 RoET127926
     K16T55F  C2016 10 12.27318 00 50 06.35 -08 38 09.9          20.4 RoET127926
     K16T55F  C2016 10 12.27933 00 50 05.19 -08 37 52.1          20.3 RoET127926
     K16T55F  C2016 10 12.35297 00 49 51.63 -08 34 18.1          21.2 VqET127I52
     K16T55F  C2016 10 12.35715 00 49 50.84 -08 34 04.9          21.3 VqET127I52
     K16T55F  C2016 10 12.36157 00 49 50.00 -08 33 51.1          21.6 VqET127I52
 
Observer details:
474 Mount John Observatory, Lake Tekapo.  Observers A. C. Gilmore,
    P. M. Kilmartin.  Measurer P. M. Kilmartin.  1.0-m f/7.7 reflector + CCD.
926 Tenagra II Observatory.  Observers M. Schwartz, P. R. Holvorcem.  Measurer
    M. Schwartz.  0.81-m f/7 Ritchey-Chretien + CCD.
G96 Mt. Lemmon Survey.  Observers G. J. Leonard, R. G. Matheny.  Measurers
    E. J. Christensen, D. C. Fuls, A. R. Gibbs, A. D. Grauer, J. A. Johnson,
    R. A. Kowalski, S. M. Larson, G. J. Leonard, R. G. Matheny, R. L. Seaman,
    F. C. Shelly.  1.5-m reflector + 10K CCD.
I52 Steward Observatory, Mt. Lemmon Station.  Observer A. R. Gibbs.  Measurers
    E. J. Christensen, D. C. Fuls, A. R. Gibbs, A. D. Grauer, J. A. Johnson,
    R. A. Kowalski, S. M. Larson, G. J. Leonard, R. G. Matheny, R. L. Seaman,
    F. C. Shelly.  1.0-m reflector + CCD.
 
Orbital elements:
2016 TF55                                                Earth MOID = 0.2168 AU
Epoch 2016 July 31.0 TT = JDT 2457600.5                 MPC
M 321.76665              (2000.0)            P               Q
n   0.28862896     Peri.   45.67002     +0.36670893     -0.91725877
a   2.2676505      Node    24.16189     +0.70831568     +0.16694923
e   0.5029259      Incl.   22.31819     +0.60316952     +0.36161347
P   3.41           H   22.1           G   0.15           U   8
Residuals in seconds of arc
161009 G96  0.3+  0.0     161009 474  0.5+  0.1-    161011 926  0.2+  0.1+
161009 G96  0.5-  0.5+    161009 474  0.1-  0.1-    161011 926  0.1-  0.2+
161009 G96  0.8-  0.1+    161010 926  0.1+  0.1+    161011 926  0.4-  0.2+
161009 G96  0.4-  0.3+    161010 926  0.5+  0.4-    161012 926  0.2+  0.3-
161009 G96  0.5-  1.5-    161010 926  0.1+  0.2-    161012 926  0.1-  0.3-
161009 G96  0.5+  0.2+    161011 G96  0.5+  0.7+    161012 926  0.4-  0.3-
161009 G96  0.5-  0.7+    161011 G96  0.1+  0.2+    161012 I52  0.3+  0.9-
161009 474  0.4+  0.3-    161011 G96  0.2+  0.5+    161012 I52  0.0   0.0
161009 474  0.5+  0.1-    161011 G96  0.0   0.2-    161012 I52  0.4-  0.9+

Ephemeris:
2016 TF55                a,e,i = 2.27, 0.50, 22                  q = 1.1272
Date    TT    R. A. (2000) Decl.     Delta      r     Elong.  Phase     V
2016 09 12    01 40 23.2 -20 34 42   0.5576  1.4876   142.4    24.4    22.8
...
2016 09 27    01 25 10.7 -17 13 02   0.4214  1.3943   154.4    18.1    21.9
...
2016 10 05    01 09 17.5 -13 36 00   0.3625  1.3474   160.6    14.3    21.4
...
2016 10 11    00 53 45.6 -09 37 55   0.3264  1.3139   163.1    12.8    21.0
2016 10 12    00 50 54.0 -08 51 04   0.3211  1.3085   163.1    12.8    21.0
2016 10 13    00 47 58.2 -08 02 06   0.3160  1.3032   163.0    12.9    20.9
...
2016 10 19    00 29 07.7 -02 24 16   0.2908  1.2721   159.3    16.1    20.8
...
2016 10 27    00 02 02.1 +06 46 10   0.2715  1.2342   148.9    24.6    20.9
...
2016 11 11    23 15 06.6 +25 19 29   0.2786  1.1762   126.2    42.8    21.3

A. U. Tomatic                (C) Copyright 2016 MPC           M.P.E.C. 2016-T127




More information about the Iaude mailing list